Total_Precipitation_Accumulation
0.14 0.13 0.12 0.13 0.11 0.10 0.10 0.10 0.11 0.08 0.06 0.08 0.07 0.05 0.05 0.08 0.07 0.06 0.06 0.06 0.03 0.03 0.03 0.01 0.03 0.03 0.01 0.01 0.01 0.00 0.00 0.01 0.00 0.00 0.00 0.00 0.00 0.00 0.00 0.00 0.00 0.00 0.00 0.00 0.00 0.00 0.00 0.00 0.00 0.00 0.00 0.00 0.00 0.00 0.00 0.00 0.00 0.00 0.00 0.00 0.00 0.00 0.00 0.00 0.01 0.01 0.00 0.00 0.00 0.00 0.00 0.00 0.00 0.00 0.00 0.00 0.00 0.00 0.01 0.02 0.05 0.03 0.04 0.21 0.15 0.18 0.12 0.12
0.15 0.12 0.12 0.11 0.12 0.11 0.09 0.10 0.11 0.09 0.07 0.07 0.07 0.07 0.05 0.06 0.08 0.05 0.05 0.05 0.06 0.03 0.02 0.04 0.02 0.01 0.02 0.00 0.01 0.00 0.00 0.00 0.00 0.00 0.00 0.00 0.00 0.00 0.00 0.00 0.00 0.00 0.00 0.00 0.00 0.00 0.00 0.00 0.00 0.00 0.00 0.00 0.00 0.00 0.00 0.00 0.00 0.00 0.00 0.00 0.00 0.00 0.00 0.00 0.00 0.00 0.00 0.00 0.00 0.00 0.00 0.00 0.00 0.00 0.00 0.04 0.01 0.00 0.00 0.04 0.05 0.14 0.16 0.17 0.18 0.18 0.22 0.18
0.12 0.11 0.12 0.11 0.11 0.10 0.09 0.11 0.09 0.08 0.08 0.08 0.08 0.09 0.06 0.06 0.06 0.06 0.05 0.06 0.07 0.04 0.03 0.02 0.03 0.01 0.00 0.01 0.00 0.00 0.00 0.00 0.00 0.00 0.00 0.00 0.00 0.00 0.00 0.00 0.00 0.00 0.00 0.00 0.00 0.00 0.00 0.00 0.00 0.00 0.00 0.00 0.00 0.00 0.00 0.00 0.00 0.00 0.00 0.00 0.00 0.00 0.00 0.00 0.00 0.00 0.00 0.00 0.00 0.00 0.00 0.00 0.00 0.00 0.00 0.00 0.00 0.00 0.01 0.06 0.19 0.14 0.36 0.24 0.31 0.21 0.22 0.32
0.12 0.11 0.11 0.11 0.10 0.10 0.11 0.10 0.08 0.07 0.09 0.09 0.07 0.06 0.07 0.08 0.06 0.05 0.08 0.06 0.04 0.05 0.04 0.03 0.01 0.01 0.01 0.00 0.02 0.00 0.00 0.00 0.00 0.00 0.00 0.00 0.00 0.00 0.00 0.00 0.00 0.00 0.00 0.00 0.00 0.00 0.00 0.00 0.00 0.00 0.00 0.00 0.00 0.00 0.00 0.00 0.00 0.00 0.00 0.00 0.00 0.00 0.00 0.00 0.00 0.00 0.00 0.00 0.00 0.00 0.00 0.00 0.00 0.00 0.00 0.00 0.01 0.02 0.08 0.06 0.05 0.17 0.30 0.35 0.28 0.22 0.27 0.36
0.10 0.11 0.11 0.13 0.10 0.10 0.12 0.09 0.10 0.09 0.09 0.10 0.07 0.07 0.10 0.07 0.07 0.10 0.06 0.06 0.04 0.04 0.04 0.02 0.01 0.01 0.01 0.02 0.00 0.00 0.00 0.00 0.00 0.00 0.00 0.00 0.00 0.00 0.00 0.00 0.00 0.00 0.00 0.00 0.00 0.00 0.00 0.00 0.00 0.00 0.00 0.00 0.00 0.00 0.00 0.00 0.00 0.00 0.00 0.00 0.00 0.00 0.00 0.00 0.00 0.00 0.00 0.00 0.00 0.00 0.00 0.00 0.00 0.00 0.00 0.00 0.01 0.08 0.08 0.04 0.07 0.11 0.40 0.25 0.27 0.18 0.37 0.43
0.09 0.09 0.11 0.10 0.10 0.11 0.11 0.08 0.08 0.09 0.09 0.08 0.09 0.09 0.09 0.08 0.07 0.09 0.07 0.07 0.06 0.03 0.03 0.02 0.01 0.01 0.01 0.01 0.00 0.00 0.00 0.00 0.00 0.00 0.00 0.00 0.00 0.00 0.00 0.00 0.00 0.00 0.00 0.00 0.00 0.00 0.00 0.00 0.00 0.00 0.00 0.00 0.00 0.00 0.00 0.00 0.00 0.00 0.00 0.00 0.00 0.00 0.00 0.00 0.00 0.00 0.00 0.00 0.00 0.00 0.00 0.00 0.00 0.00 0.00 0.00 0.00 0.01 0.01 0.01 0.06 0.06 0.10 0.17 0.22 0.24 0.30 0.35
0.10 0.09 0.10 0.10 0.11 0.11 0.10 0.09 0.09 0.07 0.07 0.09 0.09 0.08 0.07 0.08 0.09 0.07 0.08 0.06 0.06 0.05 0.03 0.02 0.02 0.01 0.01 0.01 0.00 0.01 0.01 0.00 0.00 0.00 0.00 0.00 0.00 0.00 0.00 0.00 0.00 0.00 0.00 0.00 0.00 0.00 0.00 0.00 0.00 0.00 0.00 0.00 0.00 0.00 0.00 0.00 0.00 0.00 0.00 0.00 0.00 0.00 0.00 0.00 0.00 0.00 0.00 0.00 0.00 0.00 0.00 0.00 0.00 0.00 0.00 0.00 0.00 0.00 0.00 0.01 0.03 0.13 0.14 0.17 0.21 0.22 0.43 0.36
0.10 0.10 0.12 0.11 0.10 0.07 0.08 0.09 0.08 0.09 0.08 0.10 0.08 0.07 0.08 0.10 0.10 0.09 0.05 0.06 0.06 0.04 0.04 0.03 0.01 0.01 0.02 0.02 0.01 0.01 0.02 0.00 0.00 0.00 0.00 0.00 0.00 0.00 0.00 0.00 0.00 0.00 0.00 0.00 0.00 0.00 0.00 0.00 0.00 0.00 0.00 0.00 0.00 0.00 0.00 0.00 0.00 0.00 0.00 0.00 0.00 0.00 0.00 0.00 0.00 0.00 0.00 0.00 0.00 0.00 0.00 0.00 0.00 0.00 0.00 0.00 0.01 0.00 0.00 0.01 0.03 0.13 0.23 0.31 0.36 0.35 0.52 0.55
0.10 0.11 0.10 0.10 0.10 0.10 0.08 0.08 0.09 0.10 0.10 0.10 0.09 0.09 0.08 0.09 0.09 0.06 0.05 0.07 0.05 0.06 0.04 0.04 0.01 0.01 0.02 0.04 0.04 0.06 0.01 0.00 0.00 0.00 0.00 0.00 0.00 0.00 0.00 0.00 0.00 0.00 0.00 0.00 0.00 0.00 0.00 0.00 0.00 0.00 0.00 0.00 0.00 0.00 0.00 0.00 0.00 0.00 0.00 0.00 0.00 0.00 0.00 0.00 0.00 0.00 0.00 0.00 0.00 0.00 0.00 0.00 0.00 0.00 0.00 0.01 0.01 0.02 0.02 0.01 0.07 0.12 0.22 0.27 0.34 0.25 0.49 0.73
0.12 0.10 0.09 0.09 0.09 0.08 0.10 0.09 0.11 0.10 0.10 0.12 0.09 0.10 0.08 0.06 0.05 0.07 0.05 0.06 0.07 0.06 0.04 0.03 0.02 0.03 0.04 0.08 0.04 0.08 0.00 0.00 0.00 0.00 0.00 0.00 0.00 0.00 0.00 0.00 0.00 0.00 0.00 0.00 0.00 0.00 0.00 0.00 0.00 0.00 0.00 0.00 0.00 0.00 0.00 0.00 0.00 0.00 0.00 0.00 0.00 0.00 0.00 0.00 0.00 0.00 0.00 0.00 0.00 0.00 0.00 0.00 0.00 0.00 0.01 0.04 0.03 0.07 0.07 0.04 0.05 0.09 0.14 0.36 0.44 0.69 0.30 0.47
0.11 0.11 0.11 0.10 0.09 0.09 0.09 0.09 0.09 0.07 0.07 0.07 0.08 0.08 0.08 0.05 0.05 0.06 0.06 0.04 0.06 0.03 0.04 0.02 0.04 0.02 0.08 0.12 0.06 0.01 0.00 0.00 0.00 0.00 0.00 0.00 0.00 0.00 0.00 0.00 0.00 0.00 0.00 0.00 0.00 0.00 0.00 0.00 0.00 0.00 0.00 0.00 0.00 0.00 0.00 0.00 0.00 0.00 0.00 0.00 0.00 0.00 0.00 0.00 0.00 0.00 0.00 0.00 0.00 0.00 0.00 0.00 0.00 0.00 0.00 0.01 0.05 0.12 0.09 0.05 0.09 0.12 0.27 0.30 0.25 0.39 0.84 1.03
0.10 0.13 0.09 0.07 0.09 0.08 0.06 0.08 0.09 0.09 0.07 0.10 0.07 0.05 0.05 0.04 0.04 0.05 0.05 0.07 0.05 0.05 0.02 0.02 0.07 0.12 0.06 0.16 0.10 0.00 0.00 0.00 0.00 0.00 0.00 0.00 0.00 0.00 0.00 0.00 0.00 0.00 0.00 0.00 0.00 0.00 0.00 0.00 0.00 0.00 0.00 0.00 0.00 0.00 0.00 0.00 0.00 0.00 0.00 0.00 0.00 0.00 0.00 0.00 0.00 0.00 0.00 0.00 0.00 0.00 0.00 0.00 0.00 0.00 0.00 0.00 0.01 0.17 0.11 0.03 0.06 0.14 0.16 0.36 0.23 0.20 0.50 0.48
0.08 0.10 0.11 0.08 0.08 0.10 0.06 0.07 0.09 0.08 0.07 0.05 0.05 0.05 0.04 0.05 0.05 0.06 0.05 0.05 0.04 0.03 0.03 0.04 0.03 0.10 0.31 0.24 0.01 0.00 0.00 0.00 0.00 0.00 0.00 0.00 0.00 0.00 0.00 0.00 0.00 0.00 0.00 0.00 0.00 0.00 0.00 0.00 0.00 0.00 0.00 0.00 0.00 0.00 0.00 0.00 0.00 0.00 0.00 0.00 0.00 0.00 0.00 0.00 0.00 0.00 0.00 0.00 0.00 0.00 0.02 0.00 0.00 0.00 0.01 0.00 0.02 0.09 0.20 0.12 0.08 0.08 0.15 0.20 0.24 0.16 0.43 0.58
0.09 0.09 0.11 0.11 0.06 0.06 0.08 0.08 0.05 0.08 0.06 0.04 0.04 0.06 0.04 0.03 0.07 0.03 0.06 0.06 0.06 0.06 0.05 0.05 0.12 0.10 0.23 0.07 0.00 0.00 0.00 0.00 0.00 0.00 0.00 0.00 0.00 0.00 0.00 0.00 0.00 0.00 0.00 0.00 0.00 0.00 0.00 0.00 0.00 0.00 0.00 0.00 0.00 0.00 0.00 0.00 0.00 0.00 0.00 0.00 0.00 0.00 0.00 0.00 0.00 0.00 0.00 0.00 0.00 0.00 0.00 0.00 0.00 0.00 0.01 0.01 0.01 0.01 0.03 0.08 0.09 0.16 0.13 0.18 0.21 0.22 0.58 0.63
0.09 0.13 0.10 0.10 0.09 0.07 0.08 0.08 0.10 0.09 0.07 0.05 0.04 0.03 0.02 0.02 0.02 0.03 0.05 0.04 0.08 0.03 0.06 0.08 0.07 0.20 0.28 0.01 0.00 0.00 0.00 0.00 0.00 0.00 0.00 0.00 0.00 0.00 0.00 0.00 0.00 0.00 0.00 0.00 0.00 0.00 0.00 0.00 0.00 0.00 0.00 0.00 0.00 0.00 0.00 0.00 0.00 0.00 0.00 0.00 0.00 0.00 0.00 0.00 0.00 0.00 0.00 0.00 0.00 0.00 0.00 0.00 0.00 0.01 0.02 0.01 0.05 0.02 0.02 0.05 0.10 0.26 0.15 0.18 0.22 0.92 0.47 0.39
0.14 0.10 0.15 0.08 0.09 0.09 0.06 0.10 0.05 0.05 0.05 0.09 0.04 0.02 0.03 0.02 0.03 0.02 0.03 0.03 0.02 0.07 0.09 0.11 0.07 0.08 0.08 0.08 0.00 0.00 0.00 0.00 0.00 0.00 0.00 0.00 0.00 0.00 0.00 0.00 0.00 0.00 0.00 0.00 0.00 0.00 0.00 0.00 0.00 0.00 0.00 0.00 0.00 0.00 0.00 0.00 0.00 0.00 0.00 0.00 0.00 0.00 0.00 0.00 0.00 0.00 0.00 0.00 0.00 0.00 0.00 0.01 0.01 0.04 0.09 0.07 0.04 0.02 0.02 0.06 0.06 0.11 0.32 0.46 0.51 1.02 0.61 0.58
0.13 0.08 0.08 0.07 0.06 0.08 0.08 0.08 0.06 0.05 0.07 0.05 0.09 0.01 0.01 0.00 0.01 0.00 0.02 0.03 0.03 0.03 0.10 0.04 0.02 0.09 0.19 0.00 0.00 0.00 0.00 0.00 0.00 0.00 0.00 0.00 0.00 0.00 0.00 0.00 0.00 0.00 0.00 0.00 0.00 0.00 0.00 0.00 0.00 0.00 0.00 0.00 0.00 0.00 0.00 0.00 0.01 0.00 0.00 0.00 0.00 0.00 0.00 0.00 0.00 0.00 0.00 0.00 0.00 0.00 0.00 0.00 0.00 0.01 0.08 0.37 0.17 0.02 0.04 0.12 0.08 0.11 0.39 0.60 1.66 0.96 0.93 1.18
0.12 0.08 0.08 0.08 0.08 0.05 0.05 0.12 0.09 0.05 0.06 0.05 0.05 0.01 0.01 0.00 0.01 0.01 0.01 0.01 0.02 0.01 0.06 0.03 0.07 0.37 0.09 0.00 0.00 0.00 0.00 0.00 0.00 0.00 0.00 0.00 0.00 0.00 0.00 0.00 0.00 0.00 0.00 0.00 0.00 0.00 0.00 0.00 0.00 0.00 0.00 0.00 0.00 0.00 0.01 0.06 0.01 0.03 0.01 0.02 0.00 0.00 0.00 0.00 0.00 0.00 0.00 0.00 0.00 0.00 0.00 0.00 0.00 0.00 0.01 0.01 0.02 0.01 0.02 0.10 0.14 0.23 0.67 1.41 1.24 0.99 1.50 1.15
0.13 0.08 0.08 0.07 0.05 0.06 0.10 0.10 0.07 0.08 0.09 0.05 0.02 0.01 0.00 0.01 0.03 0.02 0.01 0.08 0.08 0.21 0.12 0.09 0.15 0.07 0.05 0.00 0.00 0.00 0.00 0.00 0.00 0.00 0.00 0.00 0.00 0.00 0.00 0.00 0.00 0.00 0.00 0.00 0.00 0.00 0.00 0.00 0.00 0.00 0.02 0.01 0.02 0.02 0.02 0.02 0.00 0.01 0.01 0.03 0.01 0.01 0.00 0.00 0.00 0.00 0.00 0.00 0.00 0.00 0.00 0.00 0.00 0.00 0.00 0.01 0.01 0.01 0.03 0.21 0.69 0.71 0.49 0.66 1.01 1.39 0.97 0.65
0.11 0.09 0.06 0.07 0.06 0.05 0.05 0.07 0.05 0.08 0.14 0.07 0.03 0.02 0.04 0.07 0.19 0.12 0.02 0.05 0.03 0.01 0.00 0.00 0.00 0.00 0.00 0.00 0.00 0.00 0.00 0.00 0.00 0.00 0.00 0.00 0.00 0.00 0.00 0.00 0.00 0.00 0.00 0.04 0.04 0.00 0.00 0.02 0.07 0.04 0.12 0.04 0.01 0.00 0.00 0.00 0.00 0.00 0.00 0.01 0.00 0.00 0.01 0.00 0.00 0.00 0.00 0.00 0.00 0.00 0.00 0.00 0.00 0.00 0.00 0.01 0.05 0.07 0.12 0.40 0.26 0.28 0.57 1.37 1.75 0.76 0.99 1.13
0.11 0.09 0.10 0.08 0.07 0.05 0.06 0.07 0.07 0.05 0.15 0.12 0.08 0.04 0.03 0.03 0.07 0.13 0.27 0.06 0.03 0.01 0.00 0.00 0.00 0.00 0.00 0.00 0.00 0.00 0.00 0.00 0.00 0.00 0.00 0.00 0.00 0.00 0.02 0.00 0.00 0.01 0.02 0.01 0.01 0.02 0.00 0.01 0.08 0.01 0.00 0.03 0.01 0.00 0.00 0.00 0.00 0.00 0.01 0.00 0.01 0.00 0.00 0.01 0.01 0.00 0.00 0.00 0.00 0.00 0.00 0.00 0.00 0.00 0.00 0.01 0.04 0.07 0.05 0.14 0.14 0.39 0.71 1.39 0.79 0.70 0.52 0.58
0.13 0.11 0.09 0.12 0.04 0.08 0.08 0.11 0.06 0.18 0.05 0.09 0.11 0.05 0.02 0.05 0.06 0.07 0.22 0.17 0.02 0.01 0.00 0.00 0.00 0.00 0.00 0.00 0.00 0.00 0.00 0.01 0.00 0.01 0.00 0.00 0.01 0.04 0.06 0.01 0.02 0.13 0.05 0.03 0.02 0.03 0.03 0.05 0.02 0.03 0.01 0.01 0.00 0.00 0.00 0.00 0.01 0.00 0.00 0.01 0.03 0.03 0.01 0.02 0.00 0.00 0.00 0.00 0.01 0.00 0.01 0.00 0.00 0.00 0.00 0.02 0.02 0.04 0.03 0.08 0.29 0.61 1.33 0.88 0.52 0.37 0.58 0.54
0.13 0.10 0.09 0.08 0.08 0.04 0.06 0.05 0.04 0.07 0.13 0.11 0.10 0.04 0.07 0.03 0.05 0.15 0.27 0.19 0.12 0.01 0.02 0.01 0.01 0.00 0.00 0.00 0.00 0.00 0.00 0.02 0.02 0.00 0.00 0.00 0.00 0.00 0.04 0.06 0.11 0.11 0.05 0.05 0.10 0.11 0.13 0.22 0.11 0.01 0.00 0.00 0.00 0.00 0.00 0.00 0.00 0.01 0.02 0.01 0.07 0.04 0.00 0.08 0.00 0.00 0.00 0.00 0.01 0.01 0.01 0.01 0.00 0.00 0.00 0.02 0.02 0.03 0.03 0.11 0.42 1.01 0.22 0.48 0.91 0.91 0.54 0.18
0.14 0.15 0.13 0.10 0.09 0.07 0.07 0.09 0.07 0.05 0.07 0.06 0.05 0.09 0.06 0.06 0.14 0.11 0.22 0.28 0.02 0.00 0.00 0.00 0.00 0.00 0.01 0.01 0.01 0.00 0.00 0.02 0.00 0.02 0.00 0.00 0.01 0.00 0.01 0.05 0.05 0.10 0.17 0.04 0.01 0.02 0.18 0.10 0.04 0.03 0.00 0.00 0.00 0.01 0.02 0.01 0.06 0.04 0.02 0.01 0.04 0.01 0.02 0.00 0.14 0.00 0.00 0.00 0.00 0.00 0.00 0.01 0.00 0.00 0.00 0.00 0.02 0.07 0.19 0.43 0.81 0.62 0.82 0.83 0.56 0.44 0.51 0.71
0.07 0.09 0.10 0.09 0.12 0.25 0.13 0.13 0.04 0.08 0.05 0.04 0.13 0.11 0.08 0.09 0.50 0.23 0.27 0.21 0.06 0.02 0.00 0.00 0.00 0.00 0.00 0.00 0.00 0.00 0.00 0.00 0.00 0.00 0.00 0.00 0.00 0.01 0.17 0.03 0.02 0.12 0.05 0.08 0.01 0.02 0.05 0.04 0.01 0.01 0.01 0.00 0.00 0.03 0.02 0.02 0.06 0.06 0.00 0.01 0.01 0.00 0.00 0.00 0.01 0.00 0.00 0.02 0.00 0.00 0.04 0.02 0.02 0.01 0.06 0.03 0.01 0.11 0.27 0.20 0.15 0.36 0.74 0.78 0.80 0.71 0.74 0.73
0.13 0.10 0.16 0.13 0.16 0.39 0.08 0.04 0.14 0.08 0.07 0.17 0.15 0.13 0.17 0.30 0.28 0.32 0.17 0.25 0.20 0.02 0.00 0.06 0.00 0.02 0.00 0.00 0.00 0.00 0.00 0.34 0.02 0.00 0.00 0.00 0.00 0.00 0.02 0.11 0.00 0.31 0.08 0.04 0.04 0.04 0.17 0.03 0.01 0.00 0.01 0.01 0.03 0.03 0.09 0.00 0.10 0.04 0.20 0.01 0.00 0.00 0.00 0.00 0.01 0.00 0.05 0.10 0.09 0.00 0.02 0.11 0.02 0.04 0.03 0.01 0.05 0.06 0.28 0.17 0.17 0.15 0.14 0.30 0.17 0.24 0.24 0.23
0.08 0.21 0.16 0.18 0.24 0.36 0.21 0.29 0.13 0.07 0.17 0.23 0.12 0.15 0.16 0.21 0.14 0.19 0.62 0.25 0.22 0.14 0.12 0.01 0.03 0.14 0.00 0.00 0.03 0.01 0.48 0.27 0.00 0.00 0.00 0.00 0.00 0.00 0.01 0.27 0.12 0.06 0.02 0.08 0.02 0.27 0.00 0.03 0.00 0.00 0.00 0.01 0.03 0.11 0.07 0.01 0.10 0.09 0.02 0.00 0.00 0.00 0.00 0.01 0.00 0.01 0.05 0.00 0.01 0.00 0.00 0.07 0.15 0.13 0.03 0.04 0.04 0.15 0.28 0.23 0.18 0.11 0.24 0.19 0.30 0.30 0.58 0.51
0.11 0.18 0.11 0.11 0.35 0.42 0.59 0.21 0.11 0.13 0.25 0.61 0.57 0.21 0.16 0.09 0.32 0.52 0.37 0.30 0.15 0.14 0.25 0.13 0.09 0.09 0.16 0.04 0.00 0.02 0.07 0.01 0.18 0.12 0.00 0.00 0.00 0.00 0.00 0.04 0.08 0.24 0.08 0.04 0.25 0.27 0.00 0.02 0.00 0.03 0.01 0.08 0.27 0.05 0.04 0.02 0.04 0.10 0.01 0.00 0.01 0.00 0.03 0.00 0.00 0.01 0.05 0.02 0.22 0.05 0.01 0.02 0.07 0.22 0.09 0.05 0.11 0.25 0.17 0.27 0.39 0.22 0.28 0.26 0.31 0.32 0.62 0.62
0.15 0.16 0.14 0.12 0.16 0.22 0.32 0.23 0.14 0.13 0.30 0.15 0.22 0.29 0.14 0.34 0.24 0.83 0.93 0.32 0.66 0.24 0.20 0.42 0.02 0.46 0.23 0.04 0.04 0.00 0.03 0.05 0.20 0.05 0.03 0.01 0.00 0.01 0.06 0.03 0.04 0.01 0.02 0.02 0.19 0.12 0.01 0.00 0.01 0.03 0.01 0.17 0.16 0.03 0.00 0.00 0.09 0.02 0.00 0.00 0.00 0.00 0.01 0.01 0.03 0.01 0.10 0.01 0.07 0.13 0.16 0.08 0.23 0.29 0.25 0.09 0.07 0.27 0.27 0.26 0.25 0.32 0.51 0.37 0.32 0.51 0.52 0.54
0.11 0.11 0.22 0.12 0.17 0.16 0.48 0.60 0.29 0.29 0.15 0.24 0.19 0.17 0.22 0.41 1.36 0.71 0.73 0.26 0.30 0.86 0.15 0.33 0.19 0.42 0.09 0.13 0.13 0.04 0.08 0.11 0.02 0.04 0.02 0.03 0.04 0.00 0.01 0.03 0.18 0.11 0.10 0.01 0.02 0.10 0.11 0.00 0.03 0.04 0.03 0.03 0.03 0.02 0.00 0.00 0.00 0.00 0.01 0.01 0.00 0.01 0.04 0.02 0.00 0.06 0.06 0.02 0.04 0.04 0.04 0.05 0.30 0.36 0.44 0.31 0.48 0.25 0.40 0.36 0.39 0.40 0.51 0.79 0.33 0.47 0.50 0.62
0.17 0.15 0.15 0.28 0.34 0.25 0.17 0.22 0.22 0.32 0.29 0.27 0.15 0.20 0.32 0.96 1.08 0.65 0.29 0.47 0.53 0.61 0.24 0.35 0.44 0.17 0.29 0.28 0.38 0.13 0.07 0.08 0.23 0.12 0.31 0.08 0.14 0.13 0.47 0.45 0.16 0.24 0.12 0.12 0.12 0.16 0.02 0.02 0.05 0.01 0.00 0.04 0.00 0.01 0.02 0.01 0.01 0.01 0.01 0.06 0.08 0.06 0.01 0.01 0.06 0.04 0.09 0.06 0.06 0.09 0.02 0.09 0.16 0.83 0.30 0.14 0.48 0.54 0.55 0.35 0.47 0.57 0.47 0.70 0.44 0.41 0.67 0.67
0.10 0.22 0.20 0.34 0.24 0.22 0.21 0.46 0.41 0.24 0.22 0.28 0.21 0.27 0.63 0.96 0.84 0.68 0.26 0.16 0.65 1.01 0.78 0.45 0.42 0.29 0.26 0.22 0.28 0.31 0.22 0.16 0.16 0.29 0.24 0.21 0.32 0.17 0.14 0.49 0.21 0.52 0.63 0.65 0.80 0.16 0.21 0.13 0.07 0.01 0.00 0.01 0.01 0.01 0.05 0.01 0.05 0.00 0.04 0.12 0.20 0.35 0.10 0.24 0.09 0.11 0.03 0.11 0.11 0.00 0.01 0.10 0.08 0.54 0.37 0.19 0.27 0.79 0.84 0.95 0.68 0.68 0.53 0.63 0.69 0.34 0.40 0.62
0.07 0.13 0.20 0.13 0.27 0.16 0.06 0.19 0.08 0.25 0.19 0.55 0.21 0.66 1.03 0.99 0.54 0.31 0.34 0.32 1.36 1.31 0.70 0.40 0.51 0.40 0.39 0.22 0.14 0.23 0.29 0.44 0.19 0.26 0.10 0.21 0.22 0.15 0.13 0.14 0.13 0.19 0.55 0.86 0.36 0.25 0.50 0.15 0.05 0.11 0.01 0.00 0.01 0.10 0.27 0.06 0.08 0.02 0.10 0.27 0.18 0.29 0.27 0.15 0.23 0.11 0.22 0.06 0.05 0.07 0.01 0.09 0.64 0.36 0.36 0.83 0.32 0.59 0.97 0.91 0.95 0.86 1.14 0.85 0.55 0.53 0.49 0.52
0.07 0.09 0.19 0.26 0.18 0.10 0.25 0.10 0.12 0.11 0.23 0.42 0.45 0.85 1.92 0.67 0.36 0.69 0.49 0.66 0.97 0.66 0.58 0.50 0.48 0.25 0.12 0.42 0.34 0.12 0.48 0.12 0.16 0.41 0.15 0.25 0.17 0.27 0.23 0.14 0.04 0.34 0.26 0.37 0.44 0.37 0.54 0.65 0.33 0.14 0.54 0.08 0.01 0.02 0.06 0.23 0.11 0.08 0.03 0.03 0.23 0.33 0.25 0.26 0.29 0.27 0.21 0.35 0.15 0.04 0.03 0.13 0.26 1.39 0.31 0.60 0.75 0.73 1.25 1.30 1.34 1.14 0.86 0.81 0.50 0.52 0.56 1.27
0.10 0.13 0.08 0.12 0.13 0.10 0.19 0.20 0.08 0.12 0.31 0.39 0.70 0.98 0.76 0.39 0.43 0.47 0.87 0.56 0.60 0.70 0.73 0.40 0.46 0.31 0.38 0.22 0.30 0.19 0.11 0.50 0.06 0.21 0.34 0.39 0.31 0.23 0.41 0.49 0.19 0.05 0.19 0.45 0.74 0.20 0.19 0.20 0.20 0.02 0.14 0.04 0.03 0.02 0.04 0.04 0.04 0.12 0.09 0.06 0.17 0.33 0.12 0.25 0.62 0.24 0.30 0.33 0.20 0.14 0.14 0.68 0.86 1.05 0.69 0.51 0.92 1.89 2.57 2.45 2.14 1.34 1.18 0.59 0.58 0.65 1.40 1.28
0.05 0.45 0.22 0.26 0.11 0.16 0.18 0.06 0.09 0.26 0.29 0.78 0.82 0.80 0.64 0.60 0.74 0.67 1.21 0.47 0.76 1.03 0.76 0.48 0.35 0.56 0.40 0.61 0.17 0.19 0.30 0.37 0.29 0.30 0.40 0.32 0.21 0.44 0.10 0.17 0.22 0.09 0.22 0.37 0.54 0.41 0.16 0.45 0.22 0.11 0.02 0.01 0.03 0.00 0.03 0.01 0.56 0.77 0.03 0.18 0.31 0.13 0.14 0.08 0.01 0.03 0.02 0.01 0.07 0.03 0.22 0.31 0.24 1.05 0.75 2.10 2.50 1.65 2.10 2.44 2.27 2.20 2.09 1.82 1.77 1.90 1.81 1.25
0.38 0.12 0.29 0.29 0.08 0.06 0.04 0.05 0.07 0.53 0.25 0.52 0.86 0.65 0.30 0.53 0.35 0.43 0.75 0.57 0.68 0.96 1.40 1.19 0.96 0.66 0.67 0.48 0.43 0.30 0.83 0.27 0.56 0.36 0.86 0.29 0.65 0.16 0.19 0.22 0.06 0.08 0.09 0.11 0.36 0.21 0.34 0.70 0.07 0.04 0.10 0.02 0.02 0.03 0.00 0.04 0.03 0.21 0.23 0.30 0.02 0.04 0.12 0.19 0.50 0.27 0.14 0.15 0.18 0.15 0.16 0.54 0.22 0.96 0.95 1.05 1.98 2.32 1.94 1.72 2.56 2.15 1.90 2.00 2.08 1.39 1.42 1.86
0.22 0.11 0.15 0.20 0.12 0.05 0.04 0.04 0.07 0.30 0.31 0.59 0.71 0.46 0.30 0.53 0.29 0.32 0.50 0.68 0.73 0.78 1.27 1.18 1.38 0.81 0.73 0.47 0.59 0.44 0.85 0.65 0.91 0.54 0.91 0.34 0.76 0.20 0.23 0.16 0.06 0.03 0.01 0.02 0.18 0.33 0.09 0.37 0.33 0.15 0.04 0.21 0.03 0.05 0.13 0.07 0.05 0.04 0.30 0.22 0.09 0.70 0.30 0.10 0.04 0.19 0.10 0.09 0.19 0.23 0.24 0.31 0.50 1.44 1.26 1.20 1.28 1.82 1.42 1.50 1.08 1.31 1.72 2.24 2.35 2.43 2.11 1.41
0.39 0.35 0.43 0.23 0.15 0.05 0.04 0.06 0.09 0.26 0.59 0.61 0.55 0.84 0.42 0.46 0.24 0.53 0.67 0.76 0.79 0.88 1.08 1.04 1.54 1.25 1.03 0.76 0.53 0.58 0.82 0.71 0.42 0.92 1.20 0.76 0.83 1.00 0.22 0.03 0.25 0.01 0.02 0.06 0.07 0.23 0.13 0.47 0.44 0.14 0.14 0.24 0.28 0.08 0.47 0.59 0.12 0.01 0.02 0.22 0.03 0.11 0.31 0.48 0.12 0.20 0.06 0.33 0.12 0.30 0.24 0.44 0.65 1.03 1.28 1.25 1.61 1.34 0.73 0.67 0.72 0.78 1.00 1.08 1.33 1.28 1.07 0.68
0.33 0.73 0.55 0.21 0.12 0.04 0.03 0.05 0.20 0.34 0.58 0.54 0.36 0.50 0.34 0.50 0.36 0.31 0.47 0.91 1.02 0.74 0.90 0.81 0.89 1.45 1.01 0.78 0.71 0.96 0.70 0.61 0.64 1.10 0.66 0.99 0.49 0.40 0.25 0.01 0.09 0.07 0.02 0.01 0.07 0.03 0.25 0.16 0.66 0.66 0.30 0.19 0.84 0.27 0.41 0.39 0.57 0.45 0.10 0.12 0.18 0.14 0.16 0.13 0.42 0.10 0.27 0.29 0.15 0.25 0.27 0.92 0.89 0.41 0.89 0.95 0.84 1.09 1.05 0.65 0.74 0.71 0.59 0.85 0.95 1.32 0.97 0.80
0.22 0.63 0.53 0.56 0.29 0.03 0.04 0.18 0.31 0.41 0.41 0.30 0.40 0.46 0.40 0.69 0.48 0.41 0.36 0.48 0.93 0.62 0.58 0.71 0.76 1.37 1.08 1.08 0.86 0.77 1.03 0.90 0.56 1.08 0.42 0.82 0.49 0.75 0.15 0.09 0.03 0.19 0.01 0.06 0.10 0.19 0.15 0.26 0.47 0.31 0.41 0.38 0.42 0.30 0.11 0.09 0.13 0.36 0.35 0.56 0.35 0.50 0.58 0.46 0.25 0.05 0.14 0.14 0.18 0.11 0.38 0.74 0.90 0.36 0.80 0.64 0.49 0.39 0.60 0.88 0.72 1.13 0.98 1.72 1.42 1.26 1.55 2.66
0.86 0.66 1.13 0.61 0.20 0.19 0.16 0.50 0.24 0.26 0.43 0.35 0.50 0.44 0.65 0.52 0.74 0.51 0.41 0.33 0.52 0.65 0.47 0.71 0.59 1.35 0.98 1.03 0.95 0.84 1.06 0.90 0.58 0.71 0.90 0.87 1.27 0.67 0.44 0.03 0.04 0.06 0.19 0.27 0.11 0.28 0.15 0.26 0.37 0.31 0.32 0.44 0.38 0.33 0.17 0.15 0.09 0.15 0.14 0.40 0.39 0.43 0.42 0.41 0.52 0.47 0.22 0.21 0.06 0.31 0.17 1.09 0.56 0.52 0.66 0.62 0.41 0.47 0.36 0.33 0.76 0.77 0.75 0.75 0.70 1.36 1.62 2.25
0.43 0.56 1.29 0.89 0.29 0.22 0.37 0.36 0.14 0.29 0.34 0.34 0.24 0.37 0.50 0.66 0.66 0.64 0.55 0.40 0.67 0.52 0.67 0.78 0.68 1.20 1.27 1.18 1.17 1.17 1.13 1.09 0.39 0.68 0.38 0.41 0.56 0.27 0.15 0.06 0.09 0.16 0.09 0.59 0.07 0.36 0.13 0.30 0.53 0.34 0.31 0.31 0.26 0.30 0.24 0.14 0.17 0.22 0.23 0.06 0.13 0.46 0.25 0.37 0.54 0.67 0.39 0.51 0.36 0.31 0.24 1.09 0.84 0.49 0.68 0.38 0.26 0.20 0.31 0.65 0.65 0.91 0.89 0.62 0.73 0.82 1.00 1.07
0.68 2.17 1.09 0.92 0.44 0.45 0.46 0.39 0.30 0.16 0.12 0.13 0.22 0.29 0.27 0.67 0.75 0.68 0.60 0.58 0.91 0.67 0.70 0.56 0.39 1.04 1.01 1.03 1.19 1.35 1.10 1.83 0.44 0.42 0.47 0.21 0.71 0.12 0.08 0.16 0.04 0.40 0.15 0.50 0.48 0.24 0.57 0.55 0.35 0.81 0.66 0.76 0.61 0.41 0.49 0.47 0.22 0.22 0.22 0.21 0.06 0.10 0.12 0.18 0.09 0.26 0.16 0.37 0.43 0.35 0.38 0.94 1.14 0.67 1.03 0.84 0.45 0.52 0.58 0.46 0.54 0.31 0.35 0.41 0.44 0.38 0.81 0.80
1.07 1.47 1.39 1.03 0.55 0.50 0.74 0.53 0.38 0.20 0.29 0.22 0.24 0.25 0.44 0.53 0.59 0.61 0.66 0.74 0.76 0.83 0.67 0.47 0.32 0.68 1.39 1.16 1.19 0.82 0.89 1.52 1.10 0.37 0.45 0.48 0.80 0.03 0.03 0.03 0.06 0.23 0.11 0.12 0.23 0.25 0.37 0.84 0.42 0.84 1.02 1.15 1.19 1.33 1.44 1.21 0.62 0.72 0.31 0.20 0.18 0.14 0.39 0.30 0.50 0.54 0.24 0.34 0.27 0.36 0.98 0.73 0.79 0.66 0.58 0.36 0.31 0.31 0.41 0.23 0.15 0.63 1.50 0.78 0.66 0.52 0.41 0.81
1.25 1.64 1.12 1.09 1.31 1.13 0.21 0.37 0.34 0.62 0.32 0.30 0.25 0.29 0.34 0.64 0.44 0.48 0.50 0.78 0.59 0.77 0.55 0.39 0.28 0.32 0.75 0.93 1.25 1.16 1.02 0.45 0.93 0.94 0.74 0.74 0.35 0.09 0.02 0.06 0.16 0.13 0.13 0.10 0.26 0.48 0.78 0.49 0.54 0.51 0.86 1.28 1.23 0.94 0.82 0.66 0.88 0.82 0.75 0.43 0.37 0.23 0.21 0.20 0.25 0.35 0.65 0.62 0.31 0.66 0.52 0.73 0.81 0.72 0.30 0.50 0.51 0.58 0.71 0.32 0.22 0.31 0.45 0.42 0.96 1.49 1.45 1.00
1.03 1.48 1.06 0.89 0.47 0.56 0.69 0.32 0.37 0.25 0.44 0.51 0.67 0.35 0.45 0.43 0.52 0.51 0.43 0.96 0.59 0.66 0.40 0.73 0.54 0.72 0.74 0.85 0.91 1.08 0.83 0.54 0.45 0.65 0.80 0.82 0.48 0.24 0.03 0.14 0.19 0.12 0.09 0.27 0.31 0.62 0.79 0.82 0.50 0.59 0.87 0.89 0.80 0.74 0.87 0.73 0.80 0.60 0.48 0.53 0.47 0.30 0.23 0.31 0.25 0.52 0.58 0.42 0.62 0.69 0.50 0.18 0.77 0.53 0.52 0.55 0.46 0.31 0.69 0.45 0.29 0.26 0.51 0.64 0.52 0.49 0.43 0.85
1.32 1.74 1.31 1.09 0.89 0.51 0.56 0.97 0.29 0.57 0.21 0.35 0.65 0.30 0.43 0.48 0.50 0.94 0.74 0.77 0.97 0.42 0.66 0.44 0.43 0.44 0.58 0.94 1.07 1.21 1.19 0.71 0.59 0.42 0.71 0.79 0.37 0.49 0.57 0.16 0.16 0.12 0.10 0.28 0.37 0.58 1.33 0.83 0.78 0.73 0.97 0.71 0.67 0.74 0.76 0.96 0.81 0.75 0.77 0.76 0.65 0.54 0.42 0.51 0.32 0.30 0.41 0.46 0.66 0.73 0.79 0.44 0.63 0.69 0.53 0.74 0.59 0.72 0.48 0.61 0.52 0.44 0.35 0.62 0.45 0.49 0.46 0.44
1.56 1.53 1.48 0.48 0.80 0.90 0.64 0.46 0.34 0.35 0.64 0.40 0.66 0.33 0.48 0.35 0.58 0.78 1.45 1.11 0.89 0.74 0.49 0.93 0.57 0.49 0.48 0.55 1.04 1.21 1.04 1.43 0.74 0.93 0.74 0.77 0.59 0.63 0.81 0.34 0.31 0.13 0.21 0.30 0.51 0.62 0.84 0.98 1.06 0.79 1.08 0.99 0.94 0.52 0.43 0.68 0.73 0.66 0.62 0.66 0.60 0.60 0.56 0.60 0.56 0.51 0.50 0.58 0.42 0.51 0.48 0.65 0.64 0.90 0.69 0.75 0.55 0.42 0.52 0.57 0.39 0.45 0.62 0.53 0.56 0.53 0.47 0.24
1.61 2.39 1.60 0.75 0.55 0.51 0.44 0.40 0.56 0.48 0.42 0.26 0.47 0.40 0.45 0.41 0.53 0.55 0.89 1.13 0.98 0.58 0.51 0.76 0.82 0.54 0.51 0.48 0.67 1.16 1.20 1.42 1.46 1.14 0.85 0.48 0.66 0.42 0.88 0.58 0.96 0.38 0.22 0.54 0.52 1.04 0.76 1.00 0.62 0.99 1.46 1.38 1.04 0.47 0.45 0.71 0.77 0.70 0.50 0.69 0.60 0.82 0.64 0.54 0.78 0.79 0.76 0.71 0.41 0.41 0.52 0.90 0.97 0.62 0.82 0.84 0.67 0.42 0.41 0.48 0.53 0.81 0.51 0.44 0.52 0.40 0.31 0.32
1.54 1.76 1.80 1.18 0.66 0.70 0.63 0.33 0.43 0.62 0.49 0.35 0.39 0.39 0.29 0.42 0.58 0.71 0.89 0.50 1.01 0.86 0.61 0.78 0.81 1.12 0.64 0.60 0.77 1.07 1.27 1.00 1.09 1.00 0.40 0.81 1.07 0.62 0.95 0.68 0.32 0.46 0.34 0.47 0.59 1.24 0.64 1.24 0.81 1.28 1.18 1.02 0.72 0.52 0.52 0.59 0.93 0.72 0.67 0.55 0.59 0.75 0.84 0.51 0.59 0.63 1.01 0.93 0.76 0.69 0.57 0.65 1.07 0.54 0.70 0.59 0.47 0.45 0.47 0.57 0.51 0.55 0.68 0.52 0.36 0.42 0.29 0.25
1.25 0.89 1.16 1.34 0.64 0.28 0.43 0.21 0.40 0.39 0.80 0.61 0.39 0.30 0.47 0.23 0.30 0.43 0.51 0.22 0.59 0.76 0.65 0.71 0.83 1.11 0.95 1.06 1.09 0.77 0.91 0.82 0.59 0.83 0.31 0.47 0.26 0.90 0.53 0.73 0.87 1.12 0.80 0.62 0.94 1.13 1.02 0.81 0.89 1.07 1.34 0.86 1.08 0.46 0.77 0.72 1.02 1.35 1.60 0.80 0.67 0.61 0.69 0.49 0.42 0.47 0.59 1.43 1.77 1.15 0.90 0.73 0.79 0.73 0.68 1.03 1.02 0.67 0.52 0.41 0.42 0.40 0.40 0.38 0.31 0.28 0.22 0.22